[[{"header":{"parameterUnit":"m.s-1","parameterCategory":1,"la1":30.2991,"la2":30.254,"lo1":-89.0895,"lo2":-89.0444,"dy":0.0017,"dx":0.0017,"nx":28,"ny":28,"refTime":"2024-04-30T09:00:00:Z","depth":0,"parameterNumber":2,"parameterNumberName":"U-component_of_WINDS"},"data":[0,0,0,0,0,0,0,0,0,0,0,0,0,0,0,0,0,0,0,0,0,0,0,0,0,0,0,0,0,0,0,0,0,0,0,0,0,0,0,0,0,0,0,0,0,0,0,0,0,0,0,0,0,0,0,0,0,0,-0.3727,-0.3727,0,-0.3711,-0.3711,-0.371,-0.3703,-0.3703,-0.3703,-0.3703,-0.3688,-0.3687,-0.3687,0,0,0,0,0,0,0,0,0,0,0,0,0,-0.3753,-0.3752,-0.3727,-0.3727,-0.3726,-0.3711,-0.3711,-0.371,-0.3703,-0.3703,-0.3703,-0.3703,-0.3688,-0.3687,-0.3687,0,0,0,0,0,0,0,0,0,0,0,0,0,-0.374,-0.3752,-0.3727,-0.3721,-0.372,-0.3711,-0.3711,-0.371,-0.3703,-0.3703,-0.3703,-0.3703,-0.3688,-0.3687,-0.3687,-0.3683,0,0,-0.3685,-0.3685,0,0,0,0,0,0,0,0,-0.374,-0.3739,-0.3722,-0.3721,-0.372,-0.3709,-0.3714,-0.3701,-0.3703,-0.3709,-0.3703,-0.3703,-0.3695,-0.3694,-0.3691,-0.3682,-0.3681,-0.3685,-0.3684,-0.3684,-0.3684,0,0,0,0,0,0,0,-0.3741,-0.3739,-0.3721,-0.3722,-0.3721,-0.3719,-0.3718,-0.3712,-0.3702,-0.3709,-0.3708,-0.3706,-0.3694,-0.3691,-0.369,-0.3681,-0.3685,-0.3684,-0.3684,-0.3684,-0.3669,-0.3669,0,0,0,0,0,0,-0.3743,-0.374,-0.3721,-0.372,-0.3731,-0.3719,-0.3717,-0.3713,-0.3702,-0.3701,-0.3706,-0.3706,-0.3692,-0.3691,-0.369,-0.3684,-0.3684,-0.3684,-0.3683,-0.3669,-0.3669,-0.3669,0,0,0,0,0,0,-0.3744,-0.3741,-0.3722,-0.373,-0.3727,-0.3718,-0.3714,-0.3712,-0.3709,-0.37,-0.3699,-0.3705,-0.3692,-0.369,-0.3684,-0.3684,-0.3683,-0.3683,-0.3669,-0.3669,-0.3669,-0.3673,0,0,0,0,0,0,-0.3744,-0.3742,-0.374,-0.373,-0.3727,-0.3716,-0.3714,-0.3712,-0.3708,-0.3707,-0.3698,-0.3697,-0.3692,-0.3685,-0.3684,-0.3683,-0.3682,-0.3669,-0.3669,-0.3669,-0.3673,-0.3674,-0.3674,0,0,0,0,0,-0.3745,-0.3742,-0.3739,-0.3737,-0.3724,-0.3716,-0.3715,-0.3709,-0.3708,-0.3706,-0.37,-0.3697,-0.3684,-0.3685,-0.3683,-0.3682,-0.3669,-0.3669,-0.3669,-0.3673,-0.3674,-0.3674,0,0,0,0,0,0,-0.3752,-0.374,-0.3738,-0.3731,-0.3725,-0.3715,-0.3712,-0.3709,-0.3703,-0.3703,-0.3696,-0.3694,-0.3689,-0.3685,-0.3686,-0.3677,-0.3676,-0.3676,-0.368,-0.368,-0.3681,-0.3682,-0.3682,0,0,0,0,0,-0.3753,-0.3747,-0.3737,-0.3732,-0.3729,-0.3721,-0.3718,-0.3714,-0.3707,-0.3704,-0.3699,-0.3693,-0.3687,-0.3684,-0.3678,-0.3673,-0.3671,-0.3671,-0.3671,-0.3672,-0.3671,-0.3668,-0.3668,-0.3668,-0.3668,-0.3668,0,0,-0.3754,-0.3747,-0.3744,-0.3733,-0.3728,-0.3723,-0.3719,-0.3714,-0.371,-0.3704,-0.3697,-0.3693,-0.3686,-0.368,-0.3678,-0.3677,-0.3671,-0.3672,-0.3672,-0.3671,-0.3668,-0.3668,-0.3668,-0.3668,-0.3668,-0.3668,0,0,-0.3754,-0.3748,-0.3743,-0.3737,-0.3729,-0.3724,-0.3723,-0.3714,-0.3711,-0.3704,-0.37,-0.3695,-0.3686,-0.3681,-0.3677,-0.3676,-0.3673,-0.3674,-0.3675,-0.3673,-0.3673,-0.3673,-0.3672,-0.3672,-0.3674,-0.3674,-0.3674,0,-0.3757,-0.3748,-0.3741,-0.3735,-0.3731,-0.3725,-0.3721,-0.3716,-0.3707,-0.3704,-0.3703,-0.3691,-0.3686,-0.3679,-0.3679,-0.3676,-0.3675,-0.3675,-0.3673,-0.3673,-0.3673,-0.3672,-0.3672,-0.3674,-0.3674,-0.3674,-0.3674,0,-0.3752,-0.3746,-0.3743,-0.3733,-0.3729,-0.3724,-0.3717,-0.3713,-0.371,-0.3705,-0.3699,-0.3692,-0.3685,-0.3684,-0.368,-0.3676,-0.3676,-0.3674,-0.3673,-0.3673,-0.3672,-0.3672,-0.3674,-0.3674,-0.3674,-0.3674,0,0,-0.3755,-0.3742,-0.3741,-0.3736,-0.3727,-0.3723,-0.3718,-0.371,-0.3708,-0.3701,-0.3697,-0.369,-0.3688,-0.3684,-0.368,-0.3677,-0.3677,-0.3676,-0.3676,-0.3676,-0.3672,-0.3674,-0.3673,-0.3675,-0.3675,-0.3674,-0.3673,0,-0.3753,-0.3743,-0.3737,-0.373,-0.3724,-0.3719,-0.3715,-0.3709,-0.3704,-0.3699,-0.3695,-0.3689,-0.3687,-0.3685,-0.3682,-0.3677,-0.3676,-0.3677,-0.3671,-0.3671,-0.3673,-0.3673,-0.3674,-0.3673,-0.3672,-0.3672,-0.3672,0,-0.375,-0.3743,-0.3735,-0.3726,-0.3724,-0.372,-0.3713,-0.3708,-0.3702,-0.3699,-0.3694,-0.369,-0.3685,-0.3685,-0.3678,-0.3679,-0.3676,-0.3673,-0.3673,-0.3672,-0.3671,-0.3672,-0.3672,-0.3672,-0.3672,-0.3672,-0.3672,0,-0.3753,-0.3742,-0.3736,-0.3732,-0.3722,-0.372,-0.3715,-0.3709,-0.3705,-0.3699,-0.3697,-0.3691,-0.3687,-0.3683,-0.3678,-0.3678,-0.3672,-0.367,-0.3669,-0.3669,-0.3668,-0.3668,-0.3668,-0.3666,-0.3666,-0.3666,-0.3666,0,-0.3751,-0.3747,-0.3737,-0.3733,-0.3728,-0.3722,-0.3717,-0.3712,-0.3706,-0.3702,-0.3697,-0.3693,-0.3687,-0.3682,-0.3678,-0.3673,-0.3672,-0.3669,-0.3668,-0.367,-0.367,-0.3668,-0.3668,-0.3666,-0.3666,-0.3666,-0.3666,0,-0.3754,-0.3747,-0.374,-0.3731,-0.3728,-0.3725,-0.3717,-0.3714,-0.3709,-0.3704,-0.3702,-0.3695,-0.3689,-0.3684,-0.3676,-0.3674,-0.3669,-0.3668,-0.3671,-0.367,-0.367,-0.367,-0.3668,-0.3667,-0.3666,-0.3666,-0.3666,0,-0.3753,-0.3749,-0.374,-0.3736,-0.3732,-0.3726,-0.3722,-0.3716,-0.3712,-0.3704,-0.3702,-0.3696,-0.3691,-0.3682,-0.3677,-0.3671,-0.3669,-0.3669,-0.3669,-0.367,-0.3669,-0.367,-0.3669,-0.3669,-0.3669,-0.3669,-0.3669,0,-0.3753,-0.375,-0.3744,-0.3737,-0.3732,-0.3726,-0.3721,-0.3718,-0.3711,-0.3707,-0.3701,-0.3697,-0.3689,-0.3683,-0.3677,-0.3673,-0.367,-0.367,-0.3669,-0.367,-0.3672,-0.3671,-0.3671,-0.367,-0.367,-0.367,-0.367,-0.367,-0.3753,-0.375,-0.3742,-0.3736,-0.3731,-0.3726,-0.3722,-0.3717,-0.3712,-0.3704,-0.3701,-0.3695,-0.3689,-0.3681,-0.3677,-0.3672,-0.3672,-0.3671,-0.3671,-0.367,-0.3671,-0.3673,-0.3671,-0.3671,-0.3671,-0.3671,-0.3671,0,-0.3753,-0.3748,-0.3742,-0.3734,-0.3729,-0.3726,-0.372,-0.3716,-0.3711,-0.3705,-0.37,-0.3693,-0.3688,-0.3682,-0.3676,-0.3674,-0.3672,-0.3673,-0.3673,-0.3672,-0.3672,-0.3673,-0.3674,-0.3674,-0.3674,-0.3674,-0.3674,-0.3674,-0.3752,-0.3746,-0.3742,-0.3733,-0.3729,-0.3722,-0.3719,-0.3714,-0.371,-0.3702,-0.3697,-0.3693,-0.3688,-0.3682,-0.3677,-0.3675,-0.3673,-0.3674,-0.3672,-0.3672,-0.3672,-0.3672,-0.3672,-0.3673,-0.3673,-0.3672,-0.3672,-0.3672]},{"header":{"parameterUnit":"m.s-1","parameterCategory":1,"la1":30.2991,"la2":30.254,"lo1":-89.0895,"lo2":-89.0444,"dy":0.0017,"dx":0.0017,"nx":28,"ny":28,"refTime":"2024-04-30T09:00:00:Z","depth":0,"parameterNumber":3,"parameterNumberName":"V-component_of_WINDS"},"data":[0,0,0,0,0,0,0,0,0,0,0,0,0,0,0,0,0,0,0,0,0,0,0,0,0,0,0,0,0,0,0,0,0,0,0,0,0,0,0,0,0,0,0,0,0,0,0,0,0,0,0,0,0,0,0,0,0,0,1.4914,1.4914,0,1.4952,1.4953,1.4953,1.4944,1.4943,1.4943,1.4942,1.4979,1.498,1.4982,0,0,0,0,0,0,0,0,0,0,0,0,0,1.483,1.4832,1.4914,1.4914,1.4915,1.4952,1.4953,1.4953,1.4944,1.4943,1.4942,1.4941,1.4978,1.498,1.4982,0,0,0,0,0,0,0,0,0,0,0,0,0,1.4867,1.4832,1.4914,1.4915,1.4915,1.4952,1.4953,1.4953,1.4944,1.4943,1.4942,1.4941,1.4978,1.498,1.4982,1.502,0,0,1.499,1.4991,0,0,0,0,0,0,0,0,1.4865,1.487,1.4914,1.4915,1.4915,1.4942,1.4937,1.4976,1.4945,1.4933,1.4942,1.4941,1.4967,1.4971,1.498,1.5022,1.5023,1.499,1.4992,1.4993,1.4994,0,0,0,0,0,0,0,1.4863,1.4869,1.4929,1.4915,1.4916,1.4913,1.4917,1.4944,1.4956,1.4934,1.4934,1.4938,1.4967,1.4978,1.4981,1.5024,1.499,1.4992,1.4994,1.4995,1.5098,1.5099,0,0,0,0,0,0,1.486,1.4867,1.4928,1.493,1.4887,1.4915,1.492,1.4935,1.4956,1.4958,1.4939,1.4938,1.4974,1.4978,1.4982,1.5028,1.4993,1.4995,1.4997,1.5097,1.5098,1.5099,0,0,0,0,0,0,1.4858,1.4865,1.4926,1.4898,1.4906,1.4918,1.4935,1.4936,1.4946,1.496,1.4961,1.4948,1.4973,1.4979,1.5011,1.5029,1.4996,1.4999,1.5095,1.5097,1.5099,1.5119,0,0,0,0,0,0,1.4856,1.4865,1.488,1.4899,1.4907,1.4955,1.4936,1.4938,1.4951,1.495,1.4968,1.497,1.4973,1.5007,1.5013,1.5032,1.5001,1.5094,1.5096,1.5098,1.5117,1.5121,1.5125,0,0,0,0,0,1.4853,1.4884,1.4881,1.4888,1.4926,1.4956,1.4961,1.4964,1.4953,1.4967,1.4976,1.4969,1.5026,1.501,1.5017,1.5037,1.5092,1.5095,1.5098,1.5115,1.512,1.5125,0,0,0,0,0,0,1.4866,1.4886,1.4883,1.4921,1.4937,1.4955,1.4973,1.497,1.4989,1.4987,1.4989,1.4994,1.5026,1.5035,1.5017,1.5074,1.5057,1.5062,1.5068,1.5073,1.5077,1.5075,1.5003,0,0,0,0,0,1.4873,1.4896,1.4912,1.4944,1.4952,1.4962,1.4975,1.4976,1.4992,1.4999,1.5009,1.5025,1.5046,1.506,1.508,1.5118,1.5122,1.5134,1.5139,1.5142,1.5146,1.5166,1.5172,1.5108,1.5108,1.5108,0,0,1.4888,1.4902,1.4917,1.4947,1.496,1.4983,1.4967,1.4993,1.501,1.5002,1.5034,1.5042,1.5059,1.5094,1.511,1.5102,1.5164,1.5145,1.5148,1.515,1.517,1.5176,1.5181,1.511,1.511,1.511,0,0,1.4928,1.4941,1.4969,1.4982,1.5002,1.5008,1.5014,1.5032,1.5038,1.507,1.5065,1.5084,1.5121,1.5134,1.5145,1.5189,1.5184,1.5195,1.5218,1.5238,1.5243,1.5247,1.5264,1.5269,1.5199,1.5199,1.5199,0,1.4945,1.4981,1.4984,1.501,1.5023,1.5018,1.5047,1.5059,1.5083,1.5092,1.5083,1.5129,1.514,1.5178,1.5189,1.5198,1.5206,1.5194,1.5242,1.5247,1.5251,1.5266,1.5272,1.52,1.52,1.52,1.52,0,1.5,1.5025,1.5045,1.507,1.5085,1.5112,1.5119,1.5134,1.5134,1.5141,1.5173,1.5186,1.5209,1.5218,1.5217,1.5256,1.525,1.5241,1.5225,1.5258,1.5273,1.5279,1.5202,1.5202,1.5201,1.5201,0,0,1.505,1.5076,1.5084,1.5095,1.5116,1.5135,1.5161,1.5184,1.5198,1.5214,1.5236,1.5267,1.5259,1.5272,1.5273,1.529,1.5325,1.5279,1.528,1.5288,1.5369,1.5376,1.5383,1.5322,1.5323,1.5324,1.5368,0,1.5092,1.514,1.5143,1.5186,1.5209,1.5204,1.5227,1.5242,1.5248,1.5268,1.5275,1.5297,1.5285,1.5292,1.531,1.5317,1.5342,1.5314,1.5342,1.5343,1.5339,1.539,1.5398,1.5439,1.5373,1.5374,1.5375,0,1.5148,1.5168,1.5213,1.5231,1.5241,1.5261,1.5283,1.5302,1.5318,1.5322,1.5336,1.5334,1.5361,1.5343,1.5379,1.536,1.5371,1.5377,1.5379,1.5382,1.5362,1.5396,1.5452,1.5458,1.5384,1.5383,1.5383,0,1.5181,1.5218,1.525,1.526,1.5282,1.5296,1.5306,1.5321,1.5335,1.5353,1.5362,1.5383,1.5394,1.541,1.5414,1.54,1.545,1.5432,1.5454,1.5454,1.5465,1.5465,1.5525,1.5471,1.5471,1.5471,1.5471,0,1.5228,1.5256,1.5265,1.5285,1.5316,1.5319,1.535,1.5358,1.5372,1.5393,1.5389,1.5408,1.5412,1.5432,1.5435,1.5464,1.5469,1.5473,1.5473,1.5474,1.5473,1.5482,1.5479,1.5473,1.5472,1.5472,1.5472,0,1.5271,1.5278,1.5313,1.533,1.5335,1.5357,1.5372,1.539,1.5396,1.5423,1.5429,1.5438,1.5462,1.5467,1.5494,1.5496,1.5531,1.5529,1.5526,1.5526,1.5548,1.5546,1.5616,1.5626,1.5565,1.5566,1.5566,0,1.5301,1.5322,1.5342,1.5357,1.5367,1.5389,1.5404,1.5407,1.5422,1.5442,1.5458,1.5481,1.55,1.5537,1.5546,1.5567,1.5565,1.5588,1.5568,1.5568,1.5566,1.5566,1.5568,1.5592,1.5593,1.5594,1.5594,0,1.5354,1.5357,1.5378,1.54,1.5417,1.5435,1.5451,1.5463,1.5469,1.5485,1.5509,1.5524,1.5552,1.5575,1.5596,1.5605,1.5601,1.56,1.5606,1.5607,1.5605,1.5607,1.5538,1.5599,1.5598,1.5598,1.5598,1.5597,1.5392,1.5411,1.5428,1.5452,1.5465,1.548,1.5499,1.5507,1.5528,1.5552,1.5552,1.5579,1.5594,1.5622,1.5632,1.5652,1.5645,1.5654,1.5656,1.5658,1.5661,1.5601,1.5656,1.5656,1.5655,1.5655,1.5655,0,1.5446,1.5456,1.5478,1.5502,1.552,1.5515,1.5533,1.5548,1.5572,1.5587,1.5606,1.5633,1.5655,1.5666,1.5687,1.5702,1.57,1.5707,1.5707,1.5709,1.5666,1.5659,1.5708,1.5708,1.5708,1.5708,1.5708,1.5708,1.5476,1.5508,1.5512,1.5551,1.5561,1.5588,1.5598,1.5613,1.5625,1.5656,1.5675,1.5682,1.5695,1.5717,1.5737,1.5739,1.5748,1.5756,1.5757,1.5717,1.5712,1.5707,1.57,1.5758,1.5758,1.5799,1.5799,1.58]}]]